Regional Weather Roundup
Issued by NWS

Home | Current Version | Previous Version | Text Only | Print | Product List | Glossary Off
Versions: 1 2 3 4 5 6 7 8 9 10 11 12 13 14 15 16 17 18 19 20 21 22 23 24 25 26 27 28 29 30 31 32 33 34 35 36 37 38 39 40 41 42 43 44 45 46 47 48 49 50

000
ASUS43 KOAX 020102
RWRNE

WEATHER ROUNDUP FOR NEBRASKA
NATIONAL WEATHER SERVICE OMAHA NE
800 PM CDT WED APR 01 2015

NOTES: SATELLITE DATA IS BEING USED TO AUGMENT CLOUD COVER ABOVE
       12000 FEET.
       "FAIR" INDICATES FEW OR NO CLOUDS BELOW 12,000 FEET WITH NO
       SIGNIFICANT WEATHER AND/OR OBSTRUCTIONS TO VISIBILITY.

  * THESE STATIONS DO NOT REPORT WEATHER SUCH AS RAIN...SNOW OR FOG.

NEZ001>004-019>022-054>056-020200-
NEBRASKA PANHANDLE

CITY           SKY/WX    TMP DP  RH WIND       PRES   REMARKS
SCOTTSBLUFF    CLOUDY    49  28  44 N20       29.84R
ALLIANCE       CLOUDY    50  28  42 N20       29.80R
CHADRON        CLOUDY    52  30  43 NE8       29.83R
SIDNEY         CLOUDY    57  25  29 N8G22     29.80R
$$

NEZ057>060-069>072-079>082-020200-
SOUTHWEST NEBRASKA

CITY           SKY/WX    TMP DP  RH WIND       PRES   REMARKS
NORTH PLATTE   MOCLDY    63  36  36 N20G25    29.67R
IMPERIAL       MOCLDY    67  35  30 NW16G28   29.70R
MCCOOK         PTCLDY    71  32  23 N26G33    29.56R
$$

NEZ005>010-023>029-035>040-094-020200-
NORTH CENTRAL NEBRASKA

CITY           SKY/WX    TMP DP  RH WIND       PRES   REMARKS
VALENTINE      CLOUDY    57  25  29 N21G29    29.75R
BROKEN BOW     MOCLDY    63  38  39 N23G32    29.61S
ORD            PTCLDY    64  37  36 N24G33    29.59R
$$

NEZ041-046>049-061>064-073>077-083>087-020200-
SOUTH CENTRAL NEBRASKA

CITY           SKY/WX    TMP DP  RH WIND       PRES   REMARKS
GRAND ISLAND   CLOUDY    63  46  54 N14       29.55R
HASTINGS       CLOUDY    77  49  37 SE12      29.49F
KEARNEY *      MOCLDY    64  43  45 N21G28    29.57R
$$

NEZ011>018-030>034-042>045-020200-
NORTHEAST NEBRASKA

CITY           SKY/WX    TMP DP  RH WIND       PRES   REMARKS
NORFOLK        CLOUDY    63  46  54 N15       29.59R
COLUMBUS *     MOCLDY    66  43  42 N21G39    29.60R
TEKAMAH        PTCLDY    78  47  33 S22       29.51R
$$

NEZ050>053-065>068-078-088>093-020200-
SOUTHEAST NEBRASKA

CITY           SKY/WX    TMP DP  RH WIND       PRES   REMARKS
LINCOLN        PTCLDY    76  49  38 S18G26    29.52F
OMAHA EPPLEY   MOCLDY    77  50  38 S22       29.53F
FALLS CITY     CLEAR     70  52  52 SE21G29   29.62S
$$

NEZ044-045-051>053-067-020200-
OMAHA AREA

CITY           SKY/WX    TMP DP  RH WIND       PRES   REMARKS
OMAHA EPPLEY   MOCLDY    77  50  38 S22       29.53F
OFFUTT AFB     CLEAR     76  51  42 SE21G29   29.54F
$$



USA.gov is the U.S. government's official web portal to all federal, state and local government web resources and services.